Weather History for Tarboro, NC

Change the Weather History Date:

Friday, May 3, 2013

  Actual Average Record
Temperature  
Mean Temperature 60 °F -  
Max Temperature 87 °F 78 °F 91 °F (2012)
Min Temperature 49 °F 51 °F 36 °F (1963)
Degree Days  
Heating Degree Days 5    
Growing Degree Days 10 (Base 50)    
Moisture  
Dew Point 47 °F    
Average Humidity 70    
Maximum Humidity 93    
Minimum Humidity 37    
Precipitation  
Precipitation 0.00 in - - ()
Sea Level Pressure  
Sea Level Pressure 30.24 in    
Wind  
Wind Speed 8 mph (NE)    
Max Wind Speed 20 mph    
Max Gust Speed 26 mph    
Visibility 10 miles    
Events      
Averages and records for this station are not official NWS values.
T = Trace of Precipitation, MM = Missing Value Source: NWS Daily Summary

Daily Weather History Graph

Daily Weather History Graph

Search for Another Location

Airport:

Trip Planner

Search our weather history database for the weather conditions in past years. The results will help you decide how hot, cold, wet, or windy it might be!

Date:

Astronomy

May. 03, 2013 Rise Set
Actual Time 6:15 AM EDT 7:59 PM EDT
Civil Twilight 5:47 AM EDT 8:26 PM EDT
Nautical Twilight 5:14 AM EDT 9:00 PM EDT
Astronomical Twilight 4:39 AM EDT 9:35 PM EDT
Moon 2:26 AM EDT (5/3) 2:02 PM EDT (5/3)
Length of Visible Light 14h 39m
Length of Day
13h 43m
Last Quarter, 37% of the Moon is Illuminated
May 3
Last Quarter
May 9
New
May 18
First Quarter
May 25
Full
May 31
Last Quarter

Hourly Weather History & Observations

Time (EDT) Temp. Dew Point Humidity Pressure Visibility Wind Dir Wind Speed Gust Speed Precip Events Conditions
12:15 AM 52.0 °F 49.1 °F 90% 30.28 in 10.0 mi NNE 3.5 mph - N/A   Clear
12:35 AM 52.0 °F 48.7 °F 89% 30.27 in 10.0 mi NNE 3.5 mph - N/A   Clear
12:55 AM 51.6 °F 48.2 °F 88% 30.27 in 10.0 mi NNE 3.5 mph - N/A   Clear
1:15 AM 51.1 °F 48.0 °F 89% 30.26 in 10.0 mi NNE 3.5 mph - N/A   Clear
1:35 AM 50.9 °F 47.7 °F 89% 30.25 in 10.0 mi NNE 4.6 mph - N/A   Clear
1:55 AM 50.4 °F 47.5 °F 90% 30.24 in 10.0 mi NNE 4.6 mph - N/A   Clear
2:15 AM 50.2 °F 47.1 °F 89% 30.23 in 10.0 mi NNE 4.6 mph - N/A   Clear
2:35 AM 50.0 °F 46.8 °F 89% 30.23 in 10.0 mi NNE 4.6 mph - N/A   Clear
2:55 AM 49.8 °F 46.8 °F 89% 30.23 in 10.0 mi NNE 3.5 mph - N/A   Clear
3:15 AM 49.8 °F 46.8 °F 89% 30.22 in 10.0 mi NNE 4.6 mph - N/A   Clear
3:35 AM 50.0 °F 46.9 °F 89% 30.22 in 10.0 mi NNE 4.6 mph - N/A   Clear
3:55 AM 49.8 °F 46.9 °F 90% 30.22 in 10.0 mi NNE 4.6 mph - N/A   Clear
4:15 AM 49.6 °F 47.3 °F 92% 30.22 in 10.0 mi NNE 4.6 mph - N/A   Clear
4:35 AM 49.6 °F 47.3 °F 92% 30.22 in 10.0 mi NNE 4.6 mph - N/A   Clear
4:55 AM 49.6 °F 47.5 °F 92% 30.22 in 10.0 mi NNE 5.8 mph - N/A   Clear
5:15 AM 49.8 °F 47.7 °F 92% 30.22 in 10.0 mi NNE 4.6 mph - N/A   Clear
5:35 AM 50.0 °F 47.7 °F 92% 30.22 in 7.0 mi NNE 5.8 mph - N/A   Clear
5:55 AM 49.8 °F 47.7 °F 92% 30.23 in 7.0 mi NNE 4.6 mph - N/A   Clear
6:15 AM 50.0 °F 48.0 °F 93% 30.23 in 7.0 mi NNE 6.9 mph - N/A   Clear
6:35 AM 50.2 °F 48.2 °F 93% 30.24 in 7.0 mi NNE 6.9 mph - N/A   Clear
6:55 AM 50.9 °F 48.7 °F 92% 30.25 in 7.0 mi NE 5.8 mph - N/A   Clear
7:15 AM 51.8 °F 49.3 °F 91% 30.25 in 10.0 mi NE 8.1 mph - N/A   Scattered Clouds
7:35 AM 52.9 °F 50.0 °F 90% 30.25 in 10.0 mi NE 9.2 mph - N/A   Scattered Clouds
7:55 AM 53.4 °F 50.5 °F 90% 30.25 in 10.0 mi NE 9.2 mph 16.1 mph N/A   Overcast
8:15 AM 54.1 °F 51.1 °F 89% 30.25 in 10.0 mi NNE 8.1 mph - N/A   Overcast
8:35 AM 55.8 °F 52.2 °F 88% 30.25 in 10.0 mi NE 5.8 mph - N/A   Overcast
8:55 AM 58.5 °F 53.2 °F 83% 30.25 in 10.0 mi NE 8.1 mph - N/A   Mostly Cloudy
9:15 AM 60.4 °F 53.2 °F 77% 30.25 in 10.0 mi NE 11.5 mph 16.1 mph N/A   Scattered Clouds
9:35 AM 61.5 °F 53.2 °F 74% 30.25 in 10.0 mi NE 8.1 mph - N/A   Scattered Clouds
9:55 AM 63.5 °F 53.1 °F 69% 30.25 in 10.0 mi ENE 13.8 mph 21.9 mph N/A   Scattered Clouds
10:15 AM 64.6 °F 52.5 °F 65% 30.26 in 10.0 mi NE 11.5 mph 21.9 mph N/A   Scattered Clouds
10:35 AM 65.3 °F 52.3 °F 63% 30.26 in 10.0 mi NE 15.0 mph 23.0 mph N/A   Scattered Clouds
10:55 AM 66.6 °F 52.2 °F 60% 30.26 in 10.0 mi East 17.3 mph 23.0 mph N/A   Scattered Clouds
11:15 AM 67.3 °F 51.8 °F 58% 30.26 in 10.0 mi East 16.1 mph 21.9 mph N/A   Mostly Cloudy
11:35 AM 66.7 °F 52.2 °F 59% 30.26 in 10.0 mi ENE 12.7 mph 17.3 mph N/A   Overcast
11:55 AM 67.6 °F 52.5 °F 58% 30.26 in 10.0 mi NE 11.5 mph 18.4 mph N/A   Overcast
12:15 PM 66.9 °F 51.4 °F 57% 30.26 in 10.0 mi ENE 11.5 mph 19.6 mph N/A   Overcast
12:35 PM 68.2 °F 51.1 °F 54% 30.25 in 10.0 mi East 12.7 mph 23.0 mph N/A   Mostly Cloudy
12:55 PM 69.8 °F 50.4 °F 50% 30.25 in 10.0 mi ENE 13.8 mph 21.9 mph N/A   Scattered Clouds
1:15 PM 71.1 °F 50.0 °F 47% 30.24 in 10.0 mi ENE 15.0 mph 20.7 mph N/A   Clear
1:55 PM 70.9 °F 48.0 °F 44% 30.23 in 10.0 mi East 19.6 mph - N/A   Scattered Clouds
2:15 PM 71.4 °F 46.8 °F 41% 30.22 in 10.0 mi ENE 18.4 mph 23.0 mph N/A   Clear
2:35 PM 71.1 °F 46.2 °F 41% 30.21 in 10.0 mi East 13.8 mph 25.3 mph N/A   Clear
2:55 PM 71.1 °F 46.8 °F 42% 30.21 in 10.0 mi East 15.0 mph 20.7 mph N/A   Scattered Clouds
3:15 PM 71.1 °F 45.5 °F 40% 30.20 in 10.0 mi ENE 16.1 mph 25.3 mph N/A   Scattered Clouds
3:35 PM 70.7 °F 43.2 °F 37% 30.20 in 10.0 mi NE 15.0 mph 26.5 mph N/A   Clear
3:55 PM 69.1 °F 43.9 °F 40% 30.20 in 10.0 mi East 16.1 mph 21.9 mph N/A   Clear
4:15 PM 69.1 °F 44.6 °F 41% 30.20 in 10.0 mi East 13.8 mph 23.0 mph N/A   Clear
4:35 PM 68.2 °F 44.1 °F 42% 30.20 in 10.0 mi East 13.8 mph 25.3 mph N/A   Clear
4:55 PM 67.5 °F 44.2 °F 43% 30.21 in 10.0 mi ENE 15.0 mph 20.7 mph N/A   Scattered Clouds
5:15 PM 66.2 °F 43.9 °F 44% 30.21 in 10.0 mi ENE 12.7 mph 24.2 mph N/A   Clear
5:35 PM 64.8 °F 43.0 °F 45% 30.22 in 10.0 mi ENE 15.0 mph 23.0 mph N/A   Clear
5:55 PM 61.9 °F 43.5 °F 51% 30.23 in 10.0 mi ENE 11.5 mph 23.0 mph N/A   Clear
6:15 PM 60.4 °F 42.8 °F 52% 30.22 in 10.0 mi ENE 12.7 mph 17.3 mph N/A   Clear
6:35 PM 60.1 °F 42.1 °F 51% 30.23 in 10.0 mi ENE 12.7 mph 20.7 mph N/A   Clear
6:55 PM 59.5 °F 42.3 °F 53% 30.23 in 10.0 mi ENE 17.3 mph 24.2 mph N/A   Clear
7:15 PM 58.3 °F 42.6 °F 56% 30.24 in 10.0 mi ENE 13.8 mph 21.9 mph N/A   Clear
7:35 PM 57.0 °F 42.6 °F 59% 30.24 in 10.0 mi ENE 13.8 mph - N/A   Clear
7:55 PM 55.9 °F 42.3 °F 60% 30.24 in 10.0 mi ENE 11.5 mph 16.1 mph N/A   Clear
8:15 PM 55.4 °F 42.1 °F 61% 30.25 in 10.0 mi ENE 6.9 mph - N/A   Clear
8:35 PM 54.7 °F 42.4 °F 63% 30.25 in 10.0 mi ENE 5.8 mph - N/A   Clear
8:55 PM 53.8 °F 42.8 °F 66% 30.26 in 10.0 mi ENE 5.8 mph - N/A   Clear
9:15 PM 53.6 °F 43.0 °F 67% 30.26 in 10.0 mi ENE 6.9 mph - N/A   Scattered Clouds
9:35 PM 52.9 °F 43.3 °F 70% 30.26 in 10.0 mi NE 4.6 mph - N/A   Scattered Clouds
9:55 PM 52.2 °F 43.7 °F 73% 30.26 in 10.0 mi NE 6.9 mph - N/A   Clear
10:15 PM 52.2 °F 44.1 °F 74% 30.25 in 10.0 mi NE 8.1 mph - N/A   Clear
10:55 PM 51.4 °F 44.6 °F 77% 30.24 in 10.0 mi NE 6.9 mph - N/A   Clear
11:15 PM 51.1 °F 45.0 °F 80% 30.23 in 10.0 mi NE 10.4 mph - N/A   Clear
11:35 PM 50.7 °F 45.0 °F 81% 30.23 in 10.0 mi NE 5.8 mph - N/A   Mostly Cloudy
11:55 PM 50.7 °F 45.3 °F 82% 30.23 in 10.0 mi NE 6.9 mph - N/A   Overcast